Regional Weather Roundup
Issued by NWS

Home | Current Version | Previous Version | Text Only | Print | Product List | Glossary On
Versions: 1 2 3 4 5 6 7 8 9 10 11 12 13 14 15 16 17 18 19 20 21 22 23 24 25 26 27 28 29 30 31 32 33 34 35 36 37 38 39 40 41 42 43 44 45 46 47 48 49 50
000
ASUS45 KTFX 141910
RWRMT
MONTANA REGIONAL WEATHER ROUNDUP
NATIONAL WEATHER SERVICE GREAT FALLS MT
1200 PM MST THU DEC 14 2017

NOTE: "FAIR" INDICATES FEW OR NO CLOUDS BELOW 12000 FEET WITH NO
SIGNIFICANT WEATHER AND/OR OBSTRUCTIONS TO VISIBILITY.

MTZ001>007-043-142000-
WEST OF THE DIVIDE

CITY           SKY/WX    TMP DP  RH WIND       PRES   REMARKS
KALISPELL      CLOUDY    29  25  85 CALM      30.47F
MISSOULA       FAIR      31  25  78 CALM      30.45F
BUTTE          FAIR      25  20  81 SE3       30.37F
MULLAN PASS    FAIR      27  23  85 NW3       30.33F
ANACONDA         N/A     27  19  74 NE5       30.37F
DEER LODGE       N/A     27  21  80 CALM      30.41F
EUREKA           N/A     23  21  93 MISG      30.51F
HAMILTON         N/A     27  25  93 N3        30.44F VSB 0
LIBBY            N/A     28  23  80 CALM      30.48F
PLAINS           N/A     30  23  75 CALM      30.46S
RONAN            N/A     31  27  85 CALM      30.45F
$$

MTZ008-052>055-142000-
SOUTHWEST MONTANA

CITY           SKY/WX    TMP DP  RH WIND       PRES   REMARKS
BOZEMAN        FOG       22  21  96 CALM      30.41F VSB<1/4
DILLON         FAIR      26  21  81 S5        30.40F
W YELLOWSTONE  FAIR      18  16  93 CALM      30.39F
ENNIS          CLOUDY    25  21  86 CALM      30.44F
THREE FORKS      N/A     21  19  92 CALM      30.36F VSB 0
TWIN BRIDGES     N/A     25  19  77 CALM      30.35F
$$

MTZ009-010-012-014-046-048-049-054-142000-
EAST SLOPES AND CENTRAL MONTANA

CITY           SKY/WX    TMP DP  RH WIND       PRES   REMARKS
CUT BANK       FAIR      37  25  61 S5        30.19F
GREAT FALLS    FAIR      39  22  50 SW21      30.25F WCI  29
HELENA         FOG       24  23  96 VRB3      30.40F VSB 1
CHOTEAU          N/A     43  21  42 S10       30.23F
RAYNESFORD     FAIR      41  23  48 CALM      30.24F
$$

MTZ011-013-016-021-045-047-050-051-142000-
NORTH CENTRAL MONTANA

CITY           SKY/WX    TMP DP  RH WIND       PRES   REMARKS
HAVRE          FAIR      34  26  72 SW16      30.26F WCI  24
LEWISTOWN      FAIR      37  25  61 W5        30.25F
N BAR RANCH    FAIR      39  18  41 NW15G22   30.26F WCI  31
CHINOOK          N/A     36  27  69 W10       30.25F WCI  28
$$

MTZ017>020-022>027-061-062-142000-
NORTHEAST MONTANA

CITY           SKY/WX    TMP DP  RH WIND       PRES   REMARKS
GLASGOW        FAIR      37  24  59 NW18      30.23F WCI  27
GLENDIVE       PTSUNNY   36  25  64 NW17G25   30.22F WCI  26
JORDAN           N/A     38  22  52 NW12      30.26F WCI  30
SIDNEY         FAIR      37  25  61 NW21G28   30.20F WCI  26
WOLF POINT     FAIR      38  26  62 W14       30.23F WCI  30
MALTA          SUNNY     36  25  64 W9        30.25F WCI  29
PLENTYWOOD       N/A     34  25  69 W16G22    30.15F WCI  23
POPLAR           N/A     36  25  64 NW12G21   30.21F WCI  27
SCOBEY           N/A     33  21  61 W20       30.15F WCI  21
$$

MTZ028>42-056>058-142000-
SOUTHCENTRAL AND SOUTHEAST MONTANA

CITY           SKY/WX    TMP DP  RH WIND       PRES   REMARKS
BAKER          CLOUDY    32  28  85 NW14      30.22F WCI  22
BILLINGS       FAIR      44  24  45 NW8       30.29F
LIVINGSTON     FAIR      35  26  69 W16G26    30.33F WCI  25
MILES CITY     CLOUDY    37  22  54 NW13      30.27F WCI  29
BIG TIMBER     SUNNY     37  23  56 W33G40    30.30F WCI  24
EKALAKA          N/A     30  23  75 W15       30.17F WCI  19
FORSYTH          N/A     36  21  55 W9        30.29F WCI  29
LAUREL           N/A     46  21  36 NW13      30.30F
$$

REGIONAL REPORTS...DAKOTAS

CITY           SKY/WX    TMP DP  RH WIND       PRES   REMARKS
WILLISTON      CLOUDY    36  25  64 W15       30.18F WCI  27
MINOT          CLOUDY    33  26  75 W16       30.09F WCI  23
DICKINSON      CLOUDY    32  25  75 NW22G28   30.14F WCI  19
BEACH          CLOUDY    32  28  86 NW16      30.23F WCI  21
CROSBY         CLOUDY    32  27  80 W18       30.15F WCI  20
TIOGA          CLOUDY    32  28  86 NW21      30.14F WCI  20
WATFORD CITY   CLOUDY    34  25  69 NW16      30.16F WCI  23
BISMARCK       CLOUDY    34  24  67 NW17G23   30.14S WCI  23
GRAND FORKS    CLOUDY    21  17  84 NW14      30.08S WCI   8
FARGO          CLOUDY    24  19  81 N13       30.08R WCI  12
BUFFALO SD       N/A     32  27  81 NW25      30.13F WCI  19
RAPID CITY     FLURRIES  33  25  72 NW31G39   30.19S WCI  19
$$

REGIONAL REPORTS...WYOMING/IDAHO/WASHINGTON

CITY           SKY/WX    TMP DP  RH WIND       PRES   REMARKS
GILLETTE         N/A     30  24  78 NW16      30.25F WCI  19
SHERIDAN       PTSUNNY   40  21  46 NW18G33   30.29F
BUFFALO WY     FAIR      38  15  39 N31G40    30.24F WCI  25
CODY           FAIR      38  16  40 S3        30.30F
YELLOWSTONE LA   N/A     18  17  96 CALM      30.37F
IDAHO FALLS    CLOUDY    23  22  96 CALM      30.48F FOG
SALMON         CLOUDY    31  24  75 CALM      30.51F
BOISE          CLOUDY    26  21  81 SE7       30.57F WCI  18
SPOKANE        CLOUDY    30  27  88 E3        30.49F
$$

REGIONAL REPORTS...ALBERTA

CITY           SKY/WX    TMP DP  RH WIND       PRES   REMARKS
EDMONTON       MOSUNNY   34  25  69 SW9       30.06F WCI  26
CALGARY        PTSUNNY   36  19  51 SW8       30.11F WCI  29
LETHBRIDGE     MOSUNNY   41  28  60 S10G20    30.16F
MEDICINE HAT   PTSUNNY   36  28  75 S9        30.21F WCI  29
$$

REGIONAL REPORTS...SASKATCHEWAN

CITY           SKY/WX    TMP DP  RH WIND       PRES   REMARKS
SWIFT CURRENT  SUNNY     28  23  80 W13G18    30.17F WCI  18
REGINA         CLOUDY    30  27  86 W20       30.12F WCI  18
SASKATOON      PTSUNNY   30  25  80 W13       30.15F WCI  20
$$



USA.gov is the U.S. government's official web portal to all federal, state and local government web resources and services.